TimeMST,TemperatureF,Dew PointF,Humidity,Sea Level PressureIn,VisibilityMPH,Wind Direction,Wind SpeedMPH,Gust SpeedMPH,PrecipitationIn,Events,Conditions,WindDirDegrees,DateUTC
12:53 AM,19.0,3.9,52,30.10,10.0,SE,18.4,-,N/A,,Clear,130,2013-02-20 07:53:00
1:53 AM,18.0,3.0,52,30.09,10.0,SE,19.6,26.5,N/A,,Clear,130,2013-02-20 08:53:00
2:53 AM,17.1,3.0,54,30.07,10.0,SE,19.6,26.5,N/A,,Clear,130,2013-02-20 09:53:00
3:53 AM,16.0,1.9,54,30.06,10.0,SE,16.1,24.2,N/A,,Clear,130,2013-02-20 10:53:00
4:53 AM,15.1,1.9,56,30.06,10.0,SE,19.6,25.3,N/A,,Partly Cloudy,130,2013-02-20 11:53:00
5:27 AM,14.0,1.4,57,29.96,10.0,ESE,16.1,-,N/A,,Mostly Cloudy,120,2013-02-20 12:27:00
5:53 AM,15.8,3.2,58,29.96,10.0,SE,17.3,25.3,N/A,,Overcast,130,2013-02-20 12:53:00
6:53 AM,16.0,3.0,57,30.07,10.0,SE,17.3,24.2,N/A,,Overcast,130,2013-02-20 13:53:00
7:53 AM,17.1,5.0,59,30.08,10.0,SE,19.6,26.5,N/A,,Overcast,130,2013-02-20 14:53:00
8:53 AM,18.0,6.1,60,30.09,10.0,SE,18.4,23.0,N/A,,Overcast,130,2013-02-20 15:53:00
9:51 AM,17.6,10.4,73,29.96,6.0,SE,18.4,24.2,N/A,,Haze,130,2013-02-20 16:51:00
9:53 AM,17.1,10.9,77,30.09,6.0,SE,20.7,25.3,N/A,,Haze,130,2013-02-20 16:53:00
10:53 AM,18.0,14.0,84,30.07,10.0,SE,17.3,23.0,N/A,,Overcast,130,2013-02-20 17:53:00
11:35 AM,19.4,14.0,80,29.94,7.0,ESE,18.4,-,N/A,,Overcast,120,2013-02-20 18:35:00
11:48 AM,19.4,14.0,80,29.93,8.0,SE,15.0,-,N/A,,Overcast,130,2013-02-20 18:48:00
11:53 AM,19.4,15.8,86,29.93,7.0,SE,15.0,21.9,N/A,,Overcast,130,2013-02-20 18:53:00
12:22 PM,19.4,15.8,86,29.91,6.0,ESE,17.3,-,N/A,,Haze,120,2013-02-20 19:22:00
12:39 PM,19.4,15.8,86,29.90,2.0,SE,16.1,-,0.00,Snow,Light Snow,130,2013-02-20 19:39:00
12:46 PM,21.2,15.8,80,29.90,1.2,ESE,15.0,-,0.00,Snow,Light Snow,120,2013-02-20 19:46:00
12:53 PM,21.0,17.1,85,30.01,1.2,SE,17.3,-,0.00,Snow,Light Snow,130,2013-02-20 19:53:00
1:04 PM,21.2,17.6,86,29.88,2.0,SE,17.3,-,0.00,Snow,Light Snow,130,2013-02-20 20:04:00
1:11 PM,21.2,17.6,86,29.88,1.5,ESE,16.1,23.0,0.00,Snow,Light Snow,120,2013-02-20 20:11:00
1:53 PM,21.9,18.0,85,29.98,1.8,ESE,18.4,24.2,0.00,Snow,Light Snow,120,2013-02-20 20:53:00
2:01 PM,21.2,17.6,86,29.86,2.5,ESE,19.6,-,0.00,Snow,Light Snow,120,2013-02-20 21:01:00
2:36 PM,21.2,17.6,86,29.86,5.0,ESE,15.0,-,0.00,,Overcast,110,2013-02-20 21:36:00
2:42 PM,21.2,17.6,86,29.85,1.8,ESE,15.0,-,0.00,Snow,Light Snow,120,2013-02-20 21:42:00
2:53 PM,21.9,19.0,89,29.98,0.8,ESE,15.0,-,0.00,Snow,Light Snow,120,2013-02-20 21:53:00
3:13 PM,21.2,17.6,86,29.85,1.5,SE,21.9,26.5,0.00,Snow,Light Snow,130,2013-02-20 22:13:00
3:20 PM,21.2,17.6,86,29.85,3.0,SE,20.7,26.5,0.00,Snow,Light Snow,130,2013-02-20 22:20:00
3:34 PM,21.2,17.6,86,29.85,4.0,SE,21.9,26.5,0.00,Snow,Light Snow,130,2013-02-20 22:34:00
3:46 PM,21.2,17.6,86,29.85,1.8,SE,17.3,-,0.00,Snow,Light Snow,130,2013-02-20 22:46:00
3:53 PM,21.0,17.1,85,29.98,1.2,ESE,15.0,-,0.00,Snow,Light Snow,120,2013-02-20 22:53:00
4:03 PM,19.4,17.6,93,29.85,0.8,ESE,18.4,-,0.01,Snow,Light Snow,120,2013-02-20 23:03:00
4:14 PM,19.4,17.6,93,29.85,0.5,ESE,15.0,-,0.01,Fog-Snow,Snow,120,2013-02-20 23:14:00
4:32 PM,19.4,15.8,86,29.85,1.0,ESE,12.7,-,0.03,Snow,Light Snow,110,2013-02-20 23:32:00
4:45 PM,19.4,15.8,86,29.85,2.5,ESE,13.8,-,0.03,Snow,Light Snow,120,2013-02-20 23:45:00
4:53 PM,19.9,16.0,85,29.99,2.0,East,12.7,-,0.04,Snow,Light Snow,100,2013-02-20 23:53:00
5:00 PM,19.4,15.8,86,29.85,1.5,ESE,13.8,-,N/A,Snow,Light Snow,110,2013-02-21 00:00:00
5:35 PM,19.4,15.8,86,29.85,3.0,ESE,17.3,24.2,0.01,Snow,Light Snow,110,2013-02-21 00:35:00
5:50 PM,19.4,15.8,86,29.85,7.0,ESE,17.3,25.3,0.01,Snow,Light Snow,120,2013-02-21 00:50:00
5:51 PM,19.0,16.0,88,29.99,8.0,ESE,17.3,25.3,0.01,Snow,Light Snow,120,2013-02-21 00:51:00
6:39 PM,19.4,15.8,86,29.87,2.5,ESE,15.0,-,0.00,Snow,Light Snow,110,2013-02-21 01:39:00
6:53 PM,19.0,15.1,85,30.00,1.5,ESE,13.8,-,0.00,Snow,Light Snow,110,2013-02-21 01:53:00
7:01 PM,19.4,15.8,86,29.87,1.2,ESE,16.1,-,0.00,Snow,Light Snow,110,2013-02-21 02:01:00
7:17 PM,17.6,15.8,93,29.87,1.0,ESE,13.8,-,N/A,Snow,Light Snow,110,2013-02-21 02:17:00
7:27 PM,17.6,15.8,93,29.87,1.2,ESE,15.0,-,0.01,Snow,Light Snow,110,2013-02-21 02:27:00
7:53 PM,18.0,15.1,88,30.00,1.5,ESE,17.3,-,0.01,Snow,Light Snow,120,2013-02-21 02:53:00
8:09 PM,17.6,15.8,93,29.87,1.5,ESE,12.7,-,N/A,Snow,Light Snow,110,2013-02-21 03:09:00
8:16 PM,19.4,15.8,86,29.87,2.0,East,12.7,-,N/A,Snow,Light Snow,100,2013-02-21 03:16:00
8:44 PM,19.4,15.8,86,29.87,3.0,ESE,15.0,-,0.00,Snow,Light Snow,110,2013-02-21 03:44:00
8:49 PM,19.4,15.8,86,29.87,1.8,East,13.8,-,0.00,Snow,Light Snow,100,2013-02-21 03:49:00
8:53 PM,19.0,15.1,85,30.00,1.2,ESE,16.1,-,0.00,Snow,Light Snow,110,2013-02-21 03:53:00
9:11 PM,19.4,15.8,86,29.87,2.5,East,12.7,-,0.00,Snow,Light Snow,100,2013-02-21 04:11:00
9:37 PM,17.6,15.8,93,29.87,2.5,East,12.7,-,0.01,Snow,Light Snow,100,2013-02-21 04:37:00
9:53 PM,18.0,15.1,88,30.00,1.0,East,12.7,-,0.01,Snow,Light Snow,100,2013-02-21 04:53:00
10:03 PM,17.6,15.8,93,29.86,3.0,ESE,15.0,-,0.00,Snow,Light Snow,110,2013-02-21 05:03:00
10:10 PM,17.6,15.8,93,29.86,3.0,ESE,15.0,-,0.00,Snow,Light Snow,110,2013-02-21 05:10:00
10:18 PM,17.6,15.8,93,29.86,2.5,ESE,15.0,24.2,0.00,Snow,Light Snow,110,2013-02-21 05:18:00
10:25 PM,17.6,15.8,93,29.86,2.0,ESE,17.3,-,0.00,Snow,Light Snow,110,2013-02-21 05:25:00
10:33 PM,17.6,15.8,93,29.86,1.2,ESE,17.3,-,0.00,Snow,Light Snow,110,2013-02-21 05:33:00
10:49 PM,17.6,15.8,93,29.86,0.8,ESE,13.8,-,0.01,Snow,Light Snow,110,2013-02-21 05:49:00
10:53 PM,18.0,15.1,88,29.99,0.5,East,12.7,-,0.01,Fog-Snow,Snow,100,2013-02-21 05:53:00
11:05 PM,17.6,15.8,93,29.85,1.8,East,16.1,-,0.01,Snow,Light Snow,100,2013-02-21 06:05:00
11:09 PM,17.6,15.8,93,29.84,3.0,East,16.1,-,0.01,Snow,Light Snow,100,2013-02-21 06:09:00
11:16 PM,17.6,15.8,93,29.85,1.8,ESE,15.0,-,0.01,Snow,Light Snow,110,2013-02-21 06:16:00
11:50 PM,17.6,15.8,93,29.85,1.2,ESE,15.0,-,0.02,Snow,Light Snow,110,2013-02-21 06:50:00
11:53 PM,18.0,15.1,88,29.98,1.0,ESE,16.1,-,0.02,Snow,Light Snow,110,2013-02-21 06:53:00